FW2000 Weather Reports


Display with metric or nautical units.
time (UTC)temp
F
wind
direction
speed
MPH
gust
MPH
rain 1hr
in
rain 24hr
in
rain mn
in
humidity
%
barometer
mb
20260906025008 68 277 3.0 4.0 0.00 0.00 0.00 49 1014.1
20260906024526 68 273 2.0 4.0 0.00 0.00 0.00 49 1014.1
20260906024007 68 263 2.0 5.0 0.00 0.00 0.00 49 1014.0
20260906023508 69 255 2.0 5.0 0.00 0.00 0.00 48 1014.0
20260906023015 69 267 2.0 6.0 0.00 0.00 0.00 48 1014.0
20260906022507 69 275 3.0 6.0 0.00 0.00 0.00 47 1014.0
20260906022007 70 265 3.0 9.0 0.00 0.00 0.00 47 1014.0
20260906021509 70 271 3.0 9.0 0.00 0.00 0.00 46 1014.0
20260906021007 71 271 4.0 9.0 0.00 0.00 0.00 45 1014.1
20260906020508 71 277 4.0 9.0 0.00 0.00 0.00 45 1014.1
20260906020007 72 267 2.0 9.0 0.00 0.00 0.00 44 1014.1
20260906015507 72 285 4.0 9.0 0.00 0.00 0.00 44 1014.1
20260906015006 73 265 2.0 5.0 0.00 0.00 0.00 43 1014.0
20260906014509 73 277 1.0 5.0 0.00 0.00 0.00 42 1014.0
20260906014009 73 270 2.0 6.0 0.00 0.00 0.00 42 1014.1
20260906013506 73 239 1.0 5.0 0.00 0.00 0.00 42 1014.1
20260906013017 74 205 1.0 8.0 0.00 0.00 0.00 42 1014.1
20260906012508 74 210 3.0 8.0 0.00 0.00 0.00 42 1014.1
20260906012005 74 283 2.0 5.0 0.00 0.00 0.00 41 1014.2
20260906011506 74 258 1.0 8.0 0.00 0.00 0.00 42 1014.2
20260906011005 74 247 3.0 10.0 0.00 0.00 0.00 41 1014.1
20260906010506 74 225 4.0 10.0 0.00 0.00 0.00 40 1014.1
20260906010004 75 257 3.0 7.0 0.00 0.00 0.00 40 1014.0
20260906005505 75 271 2.0 8.0 0.00 0.00 0.00 40 1013.8
20260906005004 75 277 4.0 8.0 0.00 0.00 0.00 40 1014.0
20260906004505 75 210 3.0 7.0 0.00 0.00 0.00 40 1014.1
20260906004004 74 282 3.0 9.0 0.00 0.00 0.00 40 1014.1
20260906003504 75 203 5.0 10.0 0.00 0.00 0.00 40 1014.0
20260906003004 76 267 5.0 10.0 0.00 0.00 0.00 39 1014.0
20260906002503 76 261 4.0 8.0 0.00 0.00 0.00 38 1013.9
20260906002004 76 248 3.0 9.0 0.00 0.00 0.00 38 1013.7
20260906001503 76 233 3.0 7.0 0.00 0.00 0.00 38 1013.7
20260906001002 76 277 2.0 10.0 0.00 0.00 0.00 38 1013.9
20260906000503 76 247 5.0 10.0 0.00 0.00 0.00 38 1013.9
20260906000002 76 163 4.0 10.0 0.00 0.00 0.00 38 1013.9
20260905235501 75 227 3.0 11.0 0.00 0.00 0.00 39 1014.1
20260905235002 76 165 6.0 14.0 0.00 0.00 0.00 37 1014.1
20260905234503 76 192 7.0 13.0 0.00 0.00 0.00 37 1014.1
20260905234001 76 196 3.0 11.0 0.00 0.00 0.00 38 1014.0
20260905233501 75 192 6.0 13.0 0.00 0.00 0.00 38 1014.1
20260905233000 76 153 6.0 17.0 0.00 0.00 0.00 37 1014.2
20260905232500 76 190 8.0 17.0 0.00 0.00 0.00 37 1014.1
20260905232101 76 209 5.0 14.0 0.00 0.00 0.00 38 1014.1
20260905231600 77 198 7.0 12.0 0.00 0.00 0.00 38 1014.1
20260905231059 75 223 5.0 14.0 0.00 0.00 0.00 39 1014.2
20260905230559 75 219 8.0 13.0 0.00 0.00 0.00 39 1014.3
20260905230106 76 207 6.0 12.0 0.00 0.00 0.00 37 1014.3
20260905225557 77 231 7.0 12.0 0.00 0.00 0.00 37 1014.2
20260905225100 76 128 6.0 17.0 0.00 0.00 0.00 37 1014.4
20260905224610 77 166 7.0 17.0 0.00 0.00 0.00 37 1014.5
20260905224058 78 142 2.0 10.0 0.00 0.00 0.00 36 1014.6
20260905223556 78 261 5.0 10.0 0.00 0.00 0.00 37 1014.6
20260905223057 78 224 3.0 10.0 0.00 0.00 0.00 37 1014.6
20260905222557 77 167 4.0 11.0 0.00 0.00 0.00 38 1014.6
20260905222056 75 246 6.0 11.0 0.00 0.00 0.00 39 1014.5
20260905221611 77 192 5.0 10.0 0.00 0.00 0.00 37 1014.7
20260905221059 78 238 5.0 12.0 0.00 0.00 0.00 37 1014.6
20260905220555 78 225 5.0 12.0 0.00 0.00 0.00 38 1014.6
20260905220054 78 163 5.0 11.0 0.00 0.00 0.00 37 1014.7
20260905215554 77 168 3.0 14.0 0.00 0.00 0.00 38 1014.8
20260905215054 76 222 8.0 16.0 0.00 0.00 0.00 39 1014.8
20260905214556 76 169 8.0 15.0 0.00 0.00 0.00 38 1014.8
20260905214055 77 173 6.0 15.0 0.00 0.00 0.00 37 1014.8
20260905213554 77 169 4.0 11.0 0.00 0.00 0.00 38 1014.9
20260905213101 77 170 3.0 11.0 0.00 0.00 0.00 38 1014.9
20260905212552 78 273 3.0 14.0 0.00 0.00 0.00 37 1014.9
20260905212053 77 147 7.0 14.0 0.00 0.00 0.00 37 1015.0
20260905211556 77 231 4.0 13.0 0.00 0.00 0.00 39 1015.0
20260905211051 78 205 4.0 12.0 0.00 0.00 0.00 37 1015.0
20260905210550 77 291 5.0 12.0 0.00 0.00 0.00 38 1015.1
20260905210056 77 269 5.0 12.0 0.00 0.00 0.00 39 1015.1
20260905205550 78 197 3.0 15.0 0.00 0.00 0.00 38 1015.1
20260905205049 78 179 6.0 15.0 0.00 0.00 0.00 38 1015.0
20260905204549 77 230 3.0 10.0 0.00 0.00 0.00 40 1014.9
20260905204048 76 181 3.0 11.0 0.00 0.00 0.00 41 1015.0
20260905203547 75 237 4.0 11.0 0.00 0.00 0.00 42 1015.1
20260905203048 76 188 6.0 10.0 0.00 0.00 0.00 40 1015.1
20260905202546 75 284 5.0 10.0 0.00 0.00 0.00 42 1015.0
20260905202046 75 172 5.0 18.0 0.00 0.00 0.00 41 1015.0
20260905201601 76 150 9.0 18.0 0.00 0.00 0.00 40 1015.0
20260905201045 76 185 2.0 15.0 0.00 0.00 0.00 42 1015.0
20260905200544 75 168 7.0 17.0 0.00 0.00 0.00 41 1015.0
20260905200046 76 208 9.0 17.0 0.00 0.00 0.00 41 1015.1
20260905195542 75 194 4.0 14.0 0.00 0.00 0.00 43 1015.0
20260905195043 74 213 9.0 21.0 0.00 0.00 0.00 42 1015.0
20260905194543 74 222 8.0 21.0 0.00 0.00 0.00 44 1015.1
20260905194044 75 235 7.0 19.0 0.00 0.00 0.00 44 1015.0
20260905193541 75 228 8.0 16.0 0.00 0.00 0.00 42 1015.0
20260905193045 74 171 10.0 18.0 0.00 0.00 0.00 43 1015.0
20260905192541 75 275 5.0 15.0 0.00 0.00 0.00 42 1014.9
20260905192042 75 230 6.0 15.0 0.00 0.00 0.00 43 1015.2
20260905191539 74 218 6.0 13.0 0.00 0.00 0.00 43 1015.3
20260905191039 74 178 6.0 15.0 0.00 0.00 0.00 43 1015.5
20260905190541 73 180 6.0 15.0 0.00 0.00 0.00 44 1015.3
20260905190038 75 176 6.0 14.0 0.00 0.00 0.00 43 1015.4
20260905185537 75 161 5.0 15.0 0.00 0.00 0.00 43 1015.5
20260905185036 74 230 5.0 15.0 0.00 0.00 0.00 43 1015.6
20260905184542 74 185 7.0 11.0 0.00 0.00 0.00 44 1015.6
20260905184036 73 180 5.0 10.0 0.00 0.00 0.00 44 1015.6
20260905183535 72 183 2.0 12.0 0.00 0.00 0.00 46 1015.6
20260905183034 71 205 6.0 12.0 0.00 0.00 0.00 46 1015.6
20260905182536 71 188 0.0 11.0 0.00 0.00 0.00 48 1015.6
20260905182034 72 232 3.0 11.0 0.00 0.00 0.00 45 1015.7
20260905181534 72 290 2.0 10.0 0.00 0.00 0.00 45 1015.6
20260905181036 72 283 4.0 8.0 0.00 0.00 0.00 45 1015.6
20260905180534 72 257 3.0 8.0 0.00 0.00 0.00 45 1015.6
20260905180036 72 277 3.0 8.0 0.00 0.00 0.00 45 1015.5
20260905175533 72 291 4.0 8.0 0.00 0.00 0.00 46 1015.5
20260905175034 72 282 3.0 7.0 0.00 0.00 0.00 46 1015.4
20260905174531 72 288 2.0 7.0 0.00 0.00 0.00 46 1015.4
20260905174032 72 292 2.0 5.0 0.00 0.00 0.00 46 1015.4
20260905173530 72 303 0.0 6.0 0.00 0.00 0.00 46 1015.4
20260905173031 72 292 2.0 6.0 0.00 0.00 0.00 46 1015.3
20260905172530 73 327 2.0 4.0 0.00 0.00 0.00 45 1015.3
20260905172030 73 293 0.0 4.0 0.00 0.00 0.00 45 1015.2
20260905171530 73 292 2.0 7.0 0.00 0.00 0.00 45 1015.1
20260905171029 73 298 2.0 7.0 0.00 0.00 0.00 46 1015.1
20260905170528 72 294 1.0 4.0 0.00 0.00 0.00 46 1015.2
20260905170027 72 299 2.0 6.0 0.00 0.00 0.00 46 1015.2
20260905165525 72 302 3.0 6.0 0.00 0.00 0.00 46 1015.2
20260905165028 72 313 2.0 5.0 0.00 0.00 0.00 46 1015.2
20260905164524 71 355 1.0 4.0 0.00 0.00 0.00 47 1015.2
20260905164025 71 74 1.0 3.0 0.00 0.00 0.00 48 1015.2
20260905163521 70 80 0.0 2.0 0.00 0.00 0.00 49 1015.2
20260905163020 70 80 0.0 2.0 0.00 0.00 0.00 49 1015.1
20260905162520 69 80 0.0 2.0 0.00 0.00 0.00 49 1015.2
20260905162018 69 80 0.0 3.0 0.00 0.00 0.00 50 1015.2
20260905161517 68 82 0.0 4.0 0.00 0.00 0.00 51 1015.1
20260905161016 68 90 1.0 2.0 0.00 0.00 0.00 52 1015.2
20260905160515 67 90 0.0 3.0 0.00 0.00 0.00 52 1015.1
20260905160012 67 90 0.0 3.0 0.00 0.00 0.00 53 1015.1
20260905155512 66 90 1.0 3.0 0.00 0.00 0.00 53 1015.1
20260905155010 66 63 0.0 3.0 0.00 0.00 0.00 54 1015.1
20260905154509 65 64 0.0 3.0 0.00 0.00 0.00 54 1015.1
20260905154008 65 64 0.0 3.0 0.00 0.00 0.00 55 1015.1
20260905153509 64 64 0.0 2.0 0.00 0.00 0.00 56 1015.1
20260905153005 64 64 0.0 2.0 0.00 0.00 0.00 56 1015.1
20260905152506 64 64 0.0 2.0 0.00 0.00 0.00 57 1015.1
20260905152003 63 65 0.0 1.0 0.00 0.00 0.00 57 1015.1
20260905151502 62 65 0.0 2.0 0.00 0.00 0.00 58 1014.9
20260905151101 62 65 0.0 2.0 0.00 0.00 0.00 58 1014.9
20260905150559 62 65 1.0 3.0 0.00 0.00 0.00 59 1014.9
20260905150058 61 65 0.0 3.0 0.00 0.00 0.00 59 1014.9
20260905145557 61 63 1.0 3.0 0.00 0.00 0.00 59 1014.9
20260905145056 61 59 1.0 3.0 0.00 0.00 0.00 59 1014.9
20260905144556 60 44 2.0 3.0 0.00 0.00 0.00 59 1014.9
20260905144054 60 76 1.0 4.0 0.00 0.00 0.00 59 1014.9
20260905143557 60 76 2.0 4.0 0.00 0.00 0.00 60 1014.9
20260905143052 60 67 1.0 3.0 0.00 0.00 0.00 60 1014.9
20260905142550 60 61 1.0 3.0 0.00 0.00 0.00 60 1014.9
20260905142050 60 60 1.0 3.0 0.00 0.00 0.00 60 1014.8
20260905141549 60 59 0.0 3.0 0.00 0.00 0.00 60 1014.8
20260905141048 60 93 1.0 3.0 0.00 0.00 0.00 60 1014.8
20260905140547 59 93 0.0 1.0 0.00 0.00 0.00 60 1014.8
20260905140046 59 93 0.0 3.0 0.00 0.00 0.00 60 1014.7
20260905135547 59 93 1.0 3.0 0.00 0.00 0.00 60 1014.6
20260905135045 59 94 1.0 3.0 0.00 0.00 0.00 60 1014.6
20260905134547 59 93 1.0 3.0 0.00 0.00 0.00 59 1014.6
20260905134043 59 92 2.0 4.0 0.00 0.00 0.00 59 1014.5
20260905133542 59 89 2.0 4.0 0.00 0.00 0.00 59 1014.4
20260905133042 59 92 0.0 3.0 0.00 0.00 0.00 59 1014.3
20260905132543 59 91 2.0 4.0 0.00 0.00 0.00 59 1014.3
20260905132041 59 89 2.0 6.0 0.00 0.00 0.00 59 1014.3
20260905131541 59 88 2.0 6.0 0.00 0.00 0.00 59 1014.3
20260905131041 59 101 2.0 4.0 0.00 0.00 0.00 59 1014.2
20260905130545 59 104 0.0 3.0 0.00 0.00 0.00 59 1014.3
20260905130038 60 105 0.0 4.0 0.00 0.00 0.00 58 1014.4
20260905125538 60 105 0.0 4.0 0.00 0.00 0.00 59 1014.3
20260905125037 59 90 1.0 5.0 0.00 0.00 0.00 59 1014.3
20260905124536 59 85 2.0 5.0 0.00 0.00 0.00 58 1014.3
20260905124036 60 74 2.0 4.0 0.00 0.00 0.00 58 1014.3
20260905123535 60 77 2.0 6.0 0.00 0.00 0.00 57 1014.4
20260905123035 60 77 3.0 6.0 0.00 0.00 0.00 58 1014.5
20260905122535 59 92 2.0 6.0 0.00 0.00 0.00 58 1014.5
20260905122034 59 94 2.0 4.0 0.00 0.00 0.00 58 1014.4
20260905121534 59 81 2.0 5.0 0.00 0.00 0.00 58 1014.5
20260905121034 59 79 3.0 5.0 0.00 0.00 0.00 58 1014.6
20260905120534 59 76 3.0 6.0 0.00 0.00 0.00 58 1014.5
20260905120033 59 71 3.0 6.0 0.00 0.00 0.00 58 1014.6
20260905115532 59 121 1.0 4.0 0.00 0.00 0.00 58 1014.6
20260905115033 59 88 1.0 4.0 0.00 0.00 0.00 58 1014.6
20260905114534 59 84 2.0 4.0 0.00 0.00 0.00 57 1014.6
20260905114032 60 80 2.0 5.0 0.00 0.00 0.00 57 1014.6
20260905113531 60 77 2.0 4.0 0.00 0.00 0.00 57 1014.7
20260905113032 59 78 2.0 4.0 0.00 0.00 0.00 57 1014.6
20260905112530 59 113 1.0 4.0 0.00 0.00 0.00 57 1014.7
20260905112033 59 115 1.0 3.0 0.00 0.00 0.00 57 1014.8
20260905111529 60 117 1.0 3.0 0.00 0.00 0.00 57 1014.9
20260905111030 60 115 0.0 4.0 0.00 0.00 0.00 57 1014.9
20260905110530 60 114 0.0 6.0 0.00 0.00 0.00 57 1015.0
20260905110028 59 107 3.0 6.0 0.00 0.00 0.00 57 1014.9
20260905105533 59 86 2.0 6.0 0.00 0.00 0.00 57 1014.9
20260905105028 59 76 3.0 6.0 0.00 0.00 0.00 58 1014.8
20260905104528 59 107 1.0 4.0 0.00 0.00 0.00 58 1014.9
20260905104028 59 124 2.0 4.0 0.00 0.00 0.00 57 1014.8
20260905103527 59 94 2.0 6.0 0.00 0.00 0.00 57 1014.9
20260905103031 59 111 1.0 3.0 0.00 0.00 0.00 57 1014.9
20260905102526 59 111 1.0 3.0 0.00 0.00 0.00 57 1015.0
20260905102026 59 112 1.0 3.0 0.00 0.00 0.00 57 1015.0
20260905101530 59 120 0.0 3.0 0.00 0.00 0.00 57 1015.0
20260905101031 59 120 1.0 3.0 0.00 0.00 0.00 57 1015.0
20260905100529 59 120 1.0 3.0 0.00 0.00 0.00 57 1015.1
20260905100031 59 121 1.0 3.0 0.00 0.00 0.00 57 1015.0
20260905095527 60 119 1.0 3.0 0.00 0.00 0.00 56 1015.1
20260905095028 60 107 1.0 3.0 0.00 0.00 0.00 56 1015.1
20260905094525 60 91 0.0 3.0 0.00 0.00 0.00 55 1015.0
20260905094025 60 90 0.0 4.0 0.00 0.00 0.00 55 1015.0
20260905093528 60 90 1.0 4.0 0.00 0.00 0.00 55 1015.0
20260905093024 60 105 0.0 4.0 0.00 0.00 0.00 55 1015.1
20260905092524 60 93 1.0 6.0 0.00 0.00 0.00 55 1015.0
20260905092023 60 86 2.0 6.0 0.00 0.00 0.00 55 1015.1
20260905091523 60 85 2.0 3.0 0.00 0.00 0.00 55 1015.2
20260905091022 60 87 2.0 6.0 0.00 0.00 0.00 55 1015.2
20260905090523 60 88 2.0 8.0 0.00 0.00 0.00 55 1015.1
20260905090021 60 66 3.0 8.0 0.00 0.00 0.00 56 1015.2
20260905085521 60 96 2.0 4.0 0.00 0.00 0.00 56 1015.1
20260905085021 60 82 1.0 6.0 0.00 0.00 0.00 56 1015.2
20260905084520 60 51 2.0 6.0 0.00 0.00 0.00 56 1015.2
20260905084020 60 98 2.0 6.0 0.00 0.00 0.00 56 1015.3
20260905083520 59 97 2.0 4.0 0.00 0.00 0.00 57 1015.3
20260905083026 59 90 1.0 8.0 0.00 0.00 0.00 57 1015.2
20260905082520 59 82 2.0 8.0 0.00 0.00 0.00 57 1015.2
20260905082020 59 90 0.0 6.0 0.00 0.00 0.00 57 1015.2
20260905081523 59 96 0.0 6.0 0.00 0.00 0.00 57 1015.2
20260905081019 59 87 1.0 3.0 0.00 0.00 0.00 57 1015.2
20260905080519 59 79 0.0 3.0 0.00 0.00 0.00 57 1015.3
20260905080031 59 79 0.0 4.0 0.00 0.00 0.00 57 1015.2
20260905075517 59 78 2.0 9.0 0.00 0.00 0.00 57 1015.2
20260905075018 59 76 3.0 9.0 0.00 0.00 0.00 57 1015.3
20260905074517 59 62 4.0 6.0 0.00 0.00 0.00 57 1015.2
20260905074016 60 73 1.0 4.0 0.00 0.00 0.00 56 1015.2
20260905073516 60 77 2.0 4.0 0.00 0.00 0.00 56 1015.2
20260905073016 60 91 2.0 4.0 0.00 0.00 0.00 56 1015.2
20260905072516 60 90 1.0 4.0 0.00 0.00 0.00 56 1015.2
20260905072015 60 88 0.0 7.0 0.00 0.00 0.00 56 1015.2
20260905071514 60 96 2.0 7.0 0.00 0.00 0.00 56 1015.2
20260905071014 60 104 1.0 6.0 0.00 0.00 0.00 56 1015.1
20260905070516 60 103 1.0 3.0 0.00 0.00 0.00 55 1015.1
20260905070027 60 98 1.0 4.0 0.00 0.00 0.00 55 1015.1
20260905065511 60 99 0.0 4.0 0.00 0.00 0.00 55 1015.1
20260905065013 60 92 2.0 4.0 0.00 0.00 0.00 55 1015.0
20260905064511 60 89 2.0 4.0 0.00 0.00 0.00 55 1015.0
20260905064013 60 82 3.0 4.0 0.00 0.00 0.00 55 1015.1
20260905063513 60 95 2.0 4.0 0.00 0.00 0.00 55 1015.1
20260905063011 60 96 1.0 4.0 0.00 0.00 0.00 55 1015.0
20260905062510 61 98 2.0 4.0 0.00 0.00 0.00 54 1015.0
20260905062011 61 90 2.0 4.0 0.00 0.00 0.00 54 1015.0
20260905061511 61 31 1.0 3.0 0.00 0.00 0.00 54 1015.0
20260905061011 61 22 1.0 3.0 0.00 0.00 0.00 54 1015.0
20260905060510 61 22 2.0 4.0 0.00 0.00 0.00 54 1015.1
20260905060010 61 19 2.0 4.0 0.00 0.00 0.00 53 1015.0
20260905055513 61 355 1.0 3.0 0.00 0.00 0.00 53 1015.1
20260905055010 61 277 0.0 0.0 0.00 0.00 0.00 53 1015.2
20260905054529 61 277 0.0 0.0 0.00 0.00 0.00 53 1015.1
20260905054009 61 277 0.0 1.0 0.00 0.00 0.00 53 1015.0
20260905053510 61 277 0.0 2.0 0.00 0.00 0.00 53 1015.0
20260905053010 61 277 0.0 1.0 0.00 0.00 0.00 53 1015.1
20260905052510 61 277 0.0 2.0 0.00 0.00 0.00 53 1015.2
20260905052009 61 277 0.0 2.0 0.00 0.00 0.00 53 1015.3
20260905051514 61 276 0.0 1.0 0.00 0.00 0.00 53 1015.2
20260905051009 61 276 0.0 1.0 0.00 0.00 0.00 53 1015.2
20260905050512 61 276 0.0 1.0 0.00 0.00 0.00 53 1015.2
20260905050009 62 276 0.0 1.0 0.00 0.00 0.00 53 1015.2
20260905045508 62 277 0.0 1.0 0.00 0.00 0.00 53 1015.3
20260905045011 62 277 0.0 1.0 0.00 0.00 0.00 53 1015.2
20260905044507 62 277 0.0 0.0 0.00 0.00 0.00 52 1015.1
20260905044007 62 277 0.0 0.0 0.00 0.00 0.00 52 1015.1
20260905043507 62 277 0.0 2.0 0.00 0.00 0.00 52 1015.1
20260905043008 62 277 0.0 2.0 0.00 0.00 0.00 52 1015.1
20260905042507 62 277 0.0 2.0 0.00 0.00 0.00 52 1015.1
20260905042007 62 277 0.0 3.0 0.00 0.00 0.00 52 1015.1
20260905041507 62 277 1.0 3.0 0.00 0.00 0.00 52 1015.0
20260905041006 62 277 0.0 3.0 0.00 0.00 0.00 53 1014.9
20260905040506 62 277 1.0 3.0 0.00 0.00 0.00 53 1014.9
20260905040005 62 277 1.0 3.0 0.00 0.00 0.00 53 1014.9
20260905035505 62 277 1.0 3.0 0.00 0.00 0.00 53 1014.9
20260905035004 62 277 1.0 3.0 0.00 0.00 0.00 53 1014.8
20260905034504 62 277 2.0 3.0 0.00 0.00 0.00 53 1014.7
20260905034003 62 277 2.0 3.0 0.00 0.00 0.00 52 1014.8
20260905033503 62 277 2.0 3.0 0.00 0.00 0.00 52 1014.7
20260905033003 62 276 2.0 6.0 0.00 0.00 0.00 52 1014.6
20260905032503 62 276 2.0 6.0 0.00 0.00 0.00 52 1014.6
20260905032002 62 275 2.0 4.0 0.00 0.00 0.00 52 1014.5
20260905031505 62 273 3.0 4.0 0.00 0.00 0.00 51 1014.4
20260905031001 62 275 3.0 4.0 0.00 0.00 0.00 51 1014.4
20260905030502 63 276 2.0 5.0 0.00 0.00 0.00 50 1014.3
20260905030100 63 281 3.0 5.0 0.00 0.00 0.00 50 1014.3
20260905025559 63 274 2.0 5.0 0.00 0.00 0.00 49 1014.2